Date String (YYYY-MM-DD hh:mm:ss) UTC,Instrument flags,absolute air pressure of the measurement (hPa),sample flow rate (lpm),inlet stack bypass flow (lpm),air temperature of the measurement (°C),ambient temperature measured by the external sensor (°C),aerosol sample conditioner tube jacket temperature (°C),OPC LED temperature (°C),internal box temperature (°C),relative humidity of the measurement (%),span deviation,mass concentration of particles derived from Lorenz-Mie calculation of OPC scattering (μg/m³),mass concentration of particles derived from Lorenz-Mie calculation of OPC scattering (μg/m³),mass concentration of particles derived from Lorenz-Mie calculation of OPC scattering (μg/m³)
DateTimeUTC,F1_M11,P_M11,Q1_M11,Q2_M11,T1_M11,T2_M11,T3_M11,T4_M11,T5_M11,U1_M11,ZSPAN_M11,X0_M11,X2_M11,X1_M11
2023-07-05 17:00:00,SystemResetWarning,0835.7,5.01,000.00,030.0,028.7,000.0,038.6,031.6,32.1,-002.8,0008.04,0005.79,0005.53
2023-07-05 17:01:00,SystemResetWarning,0835.7,5.00,000.00,030.0,028.8,000.0,038.6,031.6,32.0,-002.5,0008.01,0005.81,0005.55
2023-07-05 17:02:00,SystemResetWarning,0835.7,5.00,000.00,030.1,028.8,000.0,038.6,031.6,32.1,-002.8,0008.01,0005.82,0005.56
2023-07-05 17:03:00,SystemResetWarning,0835.7,4.99,000.00,030.1,028.8,000.0,038.6,031.6,32.3,-002.6,0008.03,0005.85,0005.58
2023-07-05 17:04:00,SystemResetWarning,0835.7,4.99,000.00,030.1,028.8,000.0,038.6,031.7,32.3,-002.3,0008.03,0005.85,0005.59
2023-07-05 17:05:00,SystemResetWarning,0835.7,4.99,000.00,030.1,028.9,000.0,038.6,031.7,32.2,-001.9,0008.44,0005.86,0005.60
2023-07-05 17:06:00,SystemResetWarning,0835.7,5.00,000.00,030.1,028.9,000.0,038.6,031.7,32.1,-001.7,0008.54,0005.89,0005.61
2023-07-05 17:07:00,SystemResetWarning,0835.7,5.01,000.00,030.1,028.9,000.0,038.6,031.7,32.1,-001.9,0008.51,0005.88,0005.60
2023-07-05 17:08:00,SystemResetWarning,0835.7,5.01,000.00,030.2,028.9,000.0,038.7,031.7,31.9,-002.2,0008.48,0005.86,0005.61
2023-07-05 17:09:00,SystemResetWarning,0835.7,5.01,000.00,030.2,028.9,000.0,038.7,031.7,32.0,-001.8,0008.46,0005.86,0005.61
2023-07-05 17:10:00,SystemResetWarning,0835.7,4.99,000.00,030.2,028.9,000.0,038.7,031.8,31.9,-002.4,0008.43,0005.85,0005.60
2023-07-05 17:11:00,SystemResetWarning,0835.7,4.99,000.00,030.2,028.9,000.0,038.7,031.7,31.9,-002.6,0008.48,0005.86,0005.59
2023-07-05 17:12:00,SystemResetWarning,0835.7,5.01,000.00,030.2,029.0,000.0,038.7,031.7,31.8,-002.8,0008.49,0005.84,0005.56
2023-07-05 17:13:00,SystemResetWarning,0835.8,5.01,000.00,030.2,029.0,000.0,038.7,031.8,31.7,-002.7,0008.50,0005.83,0005.56
2023-07-05 17:14:00,SystemResetWarning,0835.7,5.00,000.00,030.2,029.0,000.0,038.7,031.8,32.0,-002.6,0008.48,0005.82,0005.54
2023-07-05 17:15:00,SystemResetWarning,0835.7,5.00,000.00,030.2,029.0,000.0,038.7,031.8,32.3,-002.2,0008.42,0005.79,0005.54
2023-07-05 17:16:00,SystemResetWarning,0835.7,5.00,000.00,030.3,029.0,000.0,038.8,031.8,32.2,-002.3,0007.99,0005.75,0005.53
2023-07-05 17:17:00,SystemResetWarning,0835.7,4.99,000.00,030.3,029.0,000.0,038.8,031.8,32.1,-002.0,0007.90,0005.75,0005.53
2023-07-05 17:18:00,SystemResetWarning,0835.7,4.99,000.00,030.3,029.0,000.0,038.8,031.8,31.8,-002.1,0007.95,0005.76,0005.54
2023-07-05 17:19:00,SystemResetWarning,0835.7,5.00,000.00,030.3,029.0,000.0,038.8,031.9,31.7,-001.9,0007.94,0005.76,0005.54
2023-07-05 17:20:00,SystemResetWarning,0835.7,5.00,000.00,030.3,029.1,000.0,038.8,031.9,31.7,-002.3,0007.97,0005.77,0005.54
2023-07-05 17:21:00,SystemResetWarning,0835.7,5.00,000.00,030.3,029.1,000.0,038.8,031.9,31.3,-002.4,0008.53,0005.77,0005.53
2023-07-05 17:22:00,SystemResetWarning,0835.8,5.00,000.00,030.3,029.1,000.0,038.9,031.9,31.3,-002.5,0008.58,0005.76,0005.54
2023-07-05 17:23:00,SystemResetWarning,0835.6,5.01,000.00,030.4,029.1,000.0,038.9,031.9,31.5,-002.3,0008.58,0005.78,0005.56
2023-07-05 17:24:00,SystemResetWarning,0835.6,5.01,000.00,030.4,029.1,000.0,038.9,031.9,31.2,-002.4,0008.55,0005.80,0005.59
2023-07-05 17:25:00,SystemResetWarning,0835.6,5.00,000.00,030.4,029.1,000.0,038.9,031.9,31.1,-002.4,0008.58,0005.83,0005.61
2023-07-05 17:26:00,SystemResetWarning,0835.6,5.00,000.00,030.4,029.1,000.0,038.9,031.9,31.3,-003.2,0008.69,0005.88,0005.64
2023-07-05 17:27:00,SystemResetWarning,0835.6,5.00,000.00,030.4,029.1,000.0,038.9,032.0,31.4,-003.4,0008.78,0005.93,0005.68
2023-07-05 17:28:00,SystemResetWarning,0835.6,5.00,000.00,030.4,029.2,000.0,038.9,032.0,31.6,-003.7,0008.79,0005.97,0005.72
2023-07-05 17:29:00,SystemResetWarning,0835.6,5.00,000.00,030.4,029.2,000.0,038.9,032.0,31.3,-003.9,0008.76,0005.99,0005.76
2023-07-05 17:30:00,SystemResetWarning,0835.6,4.99,000.00,030.4,028.8,000.0,038.9,032.0,31.6,-004.1,0008.81,0006.03,0005.79
2023-07-05 17:31:00,SystemResetWarning,0835.6,4.99,000.00,030.4,026.9,000.0,038.8,031.7,31.8,-004.0,0008.83,0006.06,0005.82
2023-07-05 17:32:00,SystemResetWarning,0835.7,5.00,000.00,030.3,025.8,000.0,038.7,031.4,31.7,-003.9,0008.35,0006.12,0005.86
2023-07-05 17:33:00,SystemResetWarning,0835.6,5.01,000.00,030.1,025.7,000.0,038.7,031.1,31.7,-004.0,0008.34,0006.15,0005.89
2023-07-05 17:34:00,SystemResetWarning,0835.6,5.01,000.00,030.0,026.0,000.0,038.7,031.0,31.9,-004.2,0008.39,0006.18,0005.92
2023-07-05 17:35:00,SystemResetWarning,0835.6,4.99,000.00,029.9,026.4,000.0,038.7,031.1,32.4,-004.4,0009.13,0006.21,0005.93
2023-07-05 17:36:00,SystemResetWarning,0835.7,4.99,000.00,029.9,026.8,000.0,038.7,031.2,32.7,-004.3,0009.22,0006.22,0005.94
2023-07-05 17:37:00,SystemResetWarning,0835.6,5.00,000.00,029.9,027.2,000.0,038.6,031.3,32.6,-004.1,0009.35,0006.21,0005.95
2023-07-05 17:38:00,SystemResetWarning,0835.6,5.01,000.00,029.9,027.5,000.0,038.6,031.3,32.4,-004.0,0009.39,0006.22,0005.96
2023-07-05 17:39:00,SystemResetWarning,0835.6,5.01,000.00,029.9,027.7,000.0,038.6,031.3,32.3,-003.9,0009.44,0006.22,0005.96
2023-07-05 17:40:00,SystemResetWarning,0835.6,4.99,000.00,029.9,027.9,000.0,038.6,031.4,32.3,-003.7,0009.51,0006.24,0005.95
2023-07-05 17:41:00,SystemResetWarning,0835.6,4.99,000.00,029.9,028.1,000.0,038.6,031.4,32.7,-003.3,0009.51,0006.25,0005.96
2023-07-05 17:42:00,SystemResetWarning,0835.6,5.03,000.00,029.9,028.2,000.0,038.6,031.4,33.0,-003.3,0009.49,0006.25,0005.97
2023-07-05 17:43:00,SystemResetWarning,0835.6,4.99,000.00,029.9,028.3,000.0,038.6,031.5,32.7,-003.4,0009.55,0006.29,0006.00
2023-07-05 17:44:00,SystemResetWarning,0835.6,4.99,000.00,029.9,028.4,000.0,038.6,031.5,32.3,-003.1,0009.55,0006.29,0006.00
2023-07-05 17:45:00,SystemResetWarning,0835.6,5.01,000.00,030.0,028.5,000.0,038.6,031.5,32.2,-002.9,0009.54,0006.29,0006.00
2023-07-05 17:46:00,SystemResetWarning,0835.6,5.01,000.00,030.0,028.6,000.0,038.6,031.5,32.1,-002.8,0009.06,0006.31,0006.02
2023-07-05 17:47:00,SystemResetWarning,0835.6,5.00,000.00,030.0,028.6,000.0,038.6,031.6,32.2,-003.1,0008.87,0006.36,0006.07
2023-07-05 17:48:00,SystemResetWarning,0835.6,5.00,000.00,030.0,028.7,000.0,038.6,031.6,32.3,-003.4,0008.82,0006.42,0006.11
2023-07-05 17:49:00,SystemResetWarning,0835.6,5.00,000.00,030.0,028.7,000.0,038.6,031.6,32.2,-003.4,0008.83,0006.49,0006.15
2023-07-05 17:50:00,SystemResetWarning,0835.6,5.00,000.00,030.0,028.7,000.0,038.6,031.6,32.2,-003.5,0008.89,0006.55,0006.21
2023-07-05 17:51:00,SystemResetWarning,0835.6,5.00,000.00,030.1,028.8,000.0,038.6,031.6,32.0,-003.5,0008.89,0006.57,0006.24
2023-07-05 17:52:00,SystemResetWarning,0835.6,5.00,000.00,030.1,028.8,000.0,038.6,031.7,32.0,-003.8,0008.92,0006.61,0006.28
2023-07-05 17:53:00,SystemResetWarning,0835.6,5.00,000.00,030.1,028.8,000.0,038.7,031.7,31.8,-003.8,0009.05,0006.67,0006.32
2023-07-05 17:54:00,SystemResetWarning,0835.6,4.99,000.00,030.1,028.8,000.0,038.7,031.7,31.8,-003.7,0009.07,0006.70,0006.35
2023-07-05 17:55:00,SystemResetWarning,0835.8,5.00,000.00,030.1,028.9,000.0,038.7,031.7,31.8,-003.7,0009.11,0006.71,0006.38
2023-07-05 17:56:00,SystemResetWarning,0835.7,5.00,000.00,030.1,028.9,000.0,038.7,031.7,32.1,-003.9,0009.30,0006.79,0006.43
2023-07-05 17:57:00,SystemResetWarning,0836.0,5.00,000.00,030.2,028.9,000.0,038.7,031.8,32.2,-003.7,0009.31,0006.83,0006.48
2023-07-05 17:58:00,SystemResetWarning,0835.8,5.01,000.00,030.2,029.0,000.0,038.7,031.8,32.0,-003.6,0009.40,0006.85,0006.50
2023-07-05 17:59:00,SystemResetWarning,0835.7,5.01,000.00,030.2,029.0,000.0,038.7,031.8,31.7,-003.6,0009.43,0006.86,0006.51
